Tracking 29892 objects as of 21-Nov-2024
HD Live streaming from Space Station
objects crossing your sky now

STARLINK-32380

Track STARLINK-32380 now!
10-day predictions
STARLINK-32380 is classified as:


NORAD ID: 61069
Int'l Code: 2024-164V
Perigee: 453.6 km
Apogee: 455.2 km
Inclination: 53.2 °
Period: 93.5 minutes
Semi major axis: 6825 km
RCS: Unknown
Launch date: September 13, 2024
Source: United States (US)
Launch site: AIR FORCE WESTERN TEST RANGE (AFWTR)
Your satellite tracking list
Your tracking list is empty




NASA's NSSDC Master Catalog

Two Line Element Set (TLE):
1 61069U 24164V   24325.86611084  .00000890  00000-0  32237-4 0  9997
2 61069  53.1581 138.3345 0001144  69.4514 290.6614 15.39618446 11831
Source of the keplerian elements: AFSPC